TimeMST,TemperatureF,Dew PointF,Humidity,Sea Level PressureIn,VisibilityMPH,Wind Direction,Wind SpeedMPH,Gust SpeedMPH,PrecipitationIn,Events,Conditions,WindDirDegrees,DateUTC
12:15 AM,12.2,8.6,85,29.79,10.0,North,3.5,-,N/A,,Overcast,360,2014-02-14 07:15:00
12:35 AM,14.0,8.6,79,29.81,10.0,North,5.8,-,N/A,,Overcast,10,2014-02-14 07:35:00
12:55 AM,12.2,8.6,85,29.82,10.0,North,6.9,-,N/A,,Overcast,360,2014-02-14 07:55:00
1:15 AM,12.2,8.6,85,29.83,10.0,North,5.8,-,N/A,,Overcast,350,2014-02-14 08:15:00
1:35 AM,12.2,8.6,85,29.85,10.0,NW,5.8,-,N/A,,Overcast,320,2014-02-14 08:35:00
1:55 AM,12.2,10.4,92,29.86,10.0,NNW,5.8,-,N/A,,Overcast,340,2014-02-14 08:55:00
2:15 AM,12.2,8.6,85,29.87,10.0,North,10.4,-,N/A,,Overcast,10,2014-02-14 09:15:00
2:35 AM,12.2,6.8,79,29.87,10.0,North,6.9,-,N/A,,Overcast,10,2014-02-14 09:35:00
2:55 AM,12.2,6.8,79,29.88,10.0,North,3.5,-,N/A,,Overcast,10,2014-02-14 09:55:00
3:15 AM,12.2,6.8,79,29.87,10.0,Calm,Calm,-,N/A,,Overcast,0,2014-02-14 10:15:00
3:35 AM,12.2,6.8,79,29.88,10.0,NNE,4.6,-,N/A,,Overcast,20,2014-02-14 10:35:00
3:55 AM,12.2,8.6,85,29.90,10.0,Calm,Calm,-,N/A,,Overcast,0,2014-02-14 10:55:00
4:15 AM,12.2,6.8,79,29.91,10.0,North,3.5,-,N/A,,Overcast,360,2014-02-14 11:15:00
4:35 AM,12.2,8.6,85,29.92,10.0,North,4.6,-,N/A,,Overcast,350,2014-02-14 11:35:00
4:55 AM,12.2,8.6,85,29.92,10.0,North,4.6,-,N/A,,Overcast,360,2014-02-14 11:55:00
5:15 AM,10.4,5.0,79,29.93,10.0,Calm,Calm,-,N/A,,Overcast,0,2014-02-14 12:15:00
5:35 AM,10.4,3.2,73,29.93,10.0,Calm,Calm,-,N/A,,Overcast,0,2014-02-14 12:35:00
5:55 AM,8.6,5.0,85,29.95,10.0,Calm,Calm,-,N/A,,Overcast,0,2014-02-14 12:55:00
6:15 AM,8.6,8.6,100,29.95,10.0,Calm,Calm,-,N/A,,Overcast,0,2014-02-14 13:15:00
6:35 AM,8.6,3.2,79,29.96,10.0,Calm,Calm,-,N/A,,Overcast,0,2014-02-14 13:35:00
6:55 AM,8.6,5.0,85,29.96,10.0,Calm,Calm,-,N/A,,Overcast,0,2014-02-14 13:55:00
7:15 AM,10.4,6.8,85,29.97,10.0,Calm,Calm,-,N/A,,Overcast,0,2014-02-14 14:15:00
7:35 AM,10.4,8.6,92,29.98,10.0,Calm,Calm,-,N/A,,Overcast,0,2014-02-14 14:35:00
7:55 AM,12.2,8.6,85,29.99,10.0,SSW,3.5,-,N/A,,Overcast,210,2014-02-14 14:55:00
8:15 AM,12.2,8.6,85,29.98,10.0,Calm,Calm,-,N/A,,Overcast,0,2014-02-14 15:15:00
8:35 AM,12.2,8.6,85,29.98,10.0,Calm,Calm,-,N/A,,Overcast,0,2014-02-14 15:35:00
8:55 AM,14.0,8.6,79,29.97,10.0,Calm,Calm,-,N/A,,Overcast,0,2014-02-14 15:55:00
9:15 AM,14.0,10.4,86,29.96,10.0,Calm,Calm,-,N/A,,Overcast,0,2014-02-14 16:15:00
9:35 AM,15.8,10.4,79,29.97,9.0,Calm,Calm,-,N/A,,Overcast,0,2014-02-14 16:35:00
9:55 AM,15.8,10.4,79,29.95,10.0,Calm,Calm,-,N/A,,Overcast,0,2014-02-14 16:55:00
10:15 AM,17.6,10.4,73,29.95,10.0,South,3.5,-,N/A,,Overcast,180,2014-02-14 17:15:00
10:35 AM,17.6,12.2,79,29.94,9.0,South,4.6,-,N/A,,Overcast,190,2014-02-14 17:35:00
10:55 AM,19.4,14.0,80,29.93,10.0,SSW,5.8,-,N/A,,Overcast,200,2014-02-14 17:55:00
11:15 AM,21.2,15.8,80,29.91,10.0,South,5.8,-,N/A,,Overcast,170,2014-02-14 18:15:00
11:35 AM,23.0,17.6,80,29.90,10.0,South,5.8,-,N/A,,Overcast,170,2014-02-14 18:35:00
11:55 AM,24.8,17.6,74,29.88,10.0,South,9.2,-,N/A,,Overcast,180,2014-02-14 18:55:00
12:15 PM,26.6,21.2,80,29.86,10.0,SSW,9.2,-,N/A,,Overcast,200,2014-02-14 19:15:00
12:35 PM,28.4,21.2,74,29.85,10.0,South,9.2,-,N/A,,Mostly Cloudy,190,2014-02-14 19:35:00
12:55 PM,28.4,23.0,80,29.84,10.0,South,9.2,-,N/A,,Partly Cloudy,190,2014-02-14 19:55:00
1:15 PM,30.2,24.8,80,29.83,10.0,SSW,10.4,-,N/A,,Clear,200,2014-02-14 20:15:00
1:35 PM,30.2,24.8,80,29.83,10.0,SSW,12.7,-,N/A,,Clear,200,2014-02-14 20:35:00
1:55 PM,30.2,24.8,80,29.81,10.0,South,11.5,-,N/A,,Clear,190,2014-02-14 20:55:00
2:15 PM,30.2,24.8,80,29.80,10.0,South,8.1,-,N/A,,Clear,180,2014-02-14 21:15:00
2:35 PM,30.2,24.8,80,29.78,10.0,South,6.9,-,N/A,,Clear,170,2014-02-14 21:35:00
2:55 PM,30.2,24.8,80,29.76,10.0,SSW,11.5,-,N/A,,Clear,200,2014-02-14 21:55:00
3:15 PM,32.0,24.8,75,29.75,10.0,South,10.4,-,N/A,,Clear,190,2014-02-14 22:15:00
3:35 PM,32.0,24.8,75,29.74,10.0,South,8.1,-,N/A,,Clear,190,2014-02-14 22:35:00
3:55 PM,32.0,24.8,75,29.74,10.0,SSW,10.4,-,N/A,,Clear,200,2014-02-14 22:55:00
4:15 PM,32.0,24.8,75,29.74,10.0,SSW,5.8,-,N/A,,Clear,200,2014-02-14 23:15:00
4:35 PM,30.2,24.8,80,29.72,10.0,SSW,6.9,-,N/A,,Clear,210,2014-02-14 23:35:00
4:55 PM,28.4,23.0,80,29.72,10.0,SSW,3.5,-,N/A,,Clear,210,2014-02-14 23:55:00
5:15 PM,26.6,19.4,74,29.71,10.0,SSW,5.8,-,N/A,,Clear,200,2014-02-15 00:15:00
5:35 PM,26.6,23.0,86,29.71,10.0,SSW,4.6,-,N/A,,Clear,210,2014-02-15 00:35:00
5:55 PM,26.6,21.2,80,29.70,10.0,Calm,Calm,-,N/A,,Clear,0,2014-02-15 00:55:00
6:15 PM,24.8,19.4,80,29.69,10.0,South,3.5,-,N/A,,Clear,190,2014-02-15 01:15:00
6:35 PM,24.8,19.4,80,29.66,10.0,Calm,Calm,-,N/A,,Clear,0,2014-02-15 01:35:00
6:55 PM,23.0,19.4,86,29.63,10.0,Calm,Calm,-,N/A,,Clear,0,2014-02-15 01:55:00
7:15 PM,21.2,17.6,86,29.62,10.0,Calm,Calm,-,N/A,,Clear,0,2014-02-15 02:15:00
7:35 PM,21.2,17.6,86,29.60,10.0,Calm,Calm,-,N/A,,Mostly Cloudy,0,2014-02-15 02:35:00
7:55 PM,23.0,21.2,93,29.60,10.0,Calm,Calm,-,N/A,,Mostly Cloudy,0,2014-02-15 02:55:00
8:15 PM,24.8,24.8,100,29.61,10.0,Calm,Calm,-,N/A,,Overcast,0,2014-02-15 03:15:00
8:35 PM,26.6,24.8,93,29.61,10.0,Calm,Calm,-,N/A,,Overcast,0,2014-02-15 03:35:00
8:55 PM,26.6,21.2,80,29.61,10.0,Calm,Calm,-,N/A,,Overcast,0,2014-02-15 03:55:00
9:15 PM,28.4,24.8,86,29.59,10.0,South,4.6,-,N/A,,Overcast,170,2014-02-15 04:15:00
9:35 PM,26.6,23.0,86,29.58,10.0,South,3.5,-,N/A,,Overcast,190,2014-02-15 04:35:00
9:55 PM,26.6,23.0,86,29.57,10.0,SW,4.6,-,N/A,,Overcast,220,2014-02-15 04:55:00
10:15 PM,26.6,24.8,93,29.56,10.0,SSW,5.8,-,N/A,,Overcast,210,2014-02-15 05:15:00
10:35 PM,28.4,24.8,86,29.56,10.0,Calm,Calm,-,N/A,,Overcast,0,2014-02-15 05:35:00
10:55 PM,26.6,23.0,86,29.56,10.0,South,3.5,-,N/A,,Mostly Cloudy,190,2014-02-15 05:55:00
11:15 PM,26.6,21.2,80,29.56,10.0,SW,3.5,-,N/A,,Mostly Cloudy,220,2014-02-15 06:15:00
11:35 PM,30.2,26.6,86,29.56,10.0,SSW,5.8,-,N/A,,Mostly Cloudy,210,2014-02-15 06:35:00
11:55 PM,26.6,21.2,80,29.56,10.0,Calm,Calm,-,N/A,,Overcast,0,2014-02-15 06:55:00